Location: Newark
(37.8444°N, 127.0614°E)
Time: 21:49:52
(UTC+00:00)

XW-2F - Pass Details

Date: 29 January 2020
Orbit: 501 x 524 km, 97.5° (Epoch: 19 February)

Event Time Altitude Azimuth Distance (km) Brightness Sun altitude
Rises 09:18:41 0° 185° (S) 2,622 ? -6.0°
Reaches altitude 10° 09:20:53 10° 194° (SSW) 1,737 ? -6.4°
Maximum altitude 09:24:21 36° 262° (W) 834 ? -7.1°
Drops below altitude 10° 09:27:49 10° 330° (NNW) 1,737 ? -7.7°
Sets 09:30:02 0° 339° (NNW) 2,624 ? -8.1°
